Location: ??????
(31.2056°N, 45.3906°E)
Time: 22:22:37
(UTC+00:00)

COSMOS 2406 - Pass Details

Date: 09 April 2020
Orbit: 842 x 865 km, 71.0° (Epoch: 02 June)

Event Time Altitude Azimuth Distance (km) Brightness Sun altitude
Exits shadow 17:31:19 28° 38° (NE) 1,555 4.4 -26.6°
Drops below altitude 10° 17:33:56 10° 29° (NNE) 2,475 5.6 -27.1°
Sets 17:36:26 0° 25° (NNE) 3,417 6.4 -27.6°
